Vertical_Velocity
6 3 5 -0 2 -3 0 6 2 2 -3 0 3 -1 -0 -0 1 -1 1 -2 2 -1 -3 -3 0 -0 0 -1 -2 0 5 -3 -2 2 1 0 1 1 2 0 -0 2 0
-1 8 -0 1 1 -2 -10 7 3 2 2 -2 0 3 3 0 0 -1 1 2 -0 -1 2 -0 -1 -1 -2 -3 -1 -0 -2 1 -0 2 -1 -3 1 1 1 0 1 0 2
-6 5 2 -4 1 2 -9 -7 3 2 1 0 -4 -2 -0 4 -10 -2 -4 -1 -1 1 1 2 -3 -3 -1 -1 -1 -1 1 1 0 -3 -9 -6 -1 1 3 1 1 -2 -0
2 -4 2 -1 4 1 -1 -8 -4 4 4 -1 -2 -5 -1 2 1 -2 -1 -4 -3 -2 1 0 -0 -1 -1 -0 0 -1 -1 2 2 2 2 -0 -1 -3 2 1 3 1 -1
13 3 2 -1 3 5 -3 -2 -1 1 1 5 8 1 -5 -0 3 -4 -2 2 -5 -4 -2 1 -1 1 0 -2 -1 2 -1 -1 5 2 -3 2 -2 2 -1 1 2 1 1
2 2 2 4 5 -3 0 -5 -1 -3 4 -3 -2 4 0 -2 -1 3 -2 1 2 -3 -3 -3 -1 1 2 0 -3 -2 0 -1 -1 1 1 -0 -2 0 2 -2 1 0 1
6 -5 9 -5 -1 -3 3 -2 4 -7 0 2 1 -4 -1 3 -0 -3 -2 -2 2 1 0 -1 0 0 -1 -0 -1 -2 -2 -2 0 -1 -0 1 -1 0 2 3 2 -0 -2
21 0 12 -9 -2 9 5 -3 -0 0 2 -1 0 5 -5 -3 2 2 -1 -4 -2 -1 -2 -5 -3 3 1 -0 -1 -2 -1 -1 1 2 -0 -0 -1 -1 1 -2 2 -0 2
19 19 3 -4 5 -1 -2 -2 3 0 -2 -1 -2 -4 -4 -9 1 4 2 -5 -2 -3 2 0 -6 -4 0 1 3 -2 0 -2 0 2 3 1 -1 -0 -0 -1 2 1 1
11 8 2 -9 1 4 -0 4 2 3 5 2 -2 0 -9 0 -5 -1 3 -0 -5 -3 6 5 -0 -1 -2 -1 2 0 -1 -1 -1 -2 0 1 2 0 0 1 2 4 -0
-4 17 14 3 -3 1 5 1 -3 -3 -3 2 4 5 3 -3 -5 -4 1 8 -2 -5 -2 3 6 -1 0 -3 -2 2 1 -3 -1 -0 -2 -4 1 1 -2 -4 2 3 5
8 18 -2 4 11 -0 6 7 1 1 1 5 3 -2 3 -1 1 -9 -1 4 1 -1 -9 -3 -0 -2 -2 -6 -5 -4 -2 3 -3 -1 -2 -3 -3 1 0 -4 6 -3 6
-8 14 259 14 -5 18 2 14 11 5 6 4 2 4 10 0 4 -5 -2 3 -2 2 -2 -3 -3 3 5 3 -1 -1 0 -1 -2 -0 1 0 -2 -0 1 -2 4 -3 2
-14 34 -70 108 -5 -3 -14 16 12 4 4 -2 -3 -5 -2 3 4 -1 5 12 6 8 1 -3 -0 4 7 9 7 -0 1 1 -0 -2 0 -0 -2 -1 -2 -3 4 3 -2
-20 -29 -51 51 6 14 -81 55 -20 25 25 20 15 4 -10 13 1 7 1 8 15 2 -1 -20 7 1 -0 6 4 1 -2 -2 -1 0 1 1 -0 0 3 -5 16 2 -3
13 -1 -23 23 -3 10 -45 151 20 17 4 -8 -8 3 -2 3 5 12 7 8 7 -9 -4 11 -6 -2 6 3 -0 -2 0 0 0 -0 -1 -1 1 2 -1 -3 28 4 -2
5 -29 -2 8 22 7 3 33 20 -16 2 12 2 1 -2 -1 -4 8 5 14 58 -11 -5 9 -10 14 -7 8 -4 -1 3 -6 4 -1 0 1 1 0 2 -2 3 1 -6
1 39 1 -19 8 3 -1 10 -17 -5 2 -3 3 4 2 3 1 -9 13 26 -0 38 13 41 10 -17 -13 -9 7 -0 7 -8 -6 4 0 -1 -2 -0 1 -1 -3 5 1
3 -12 -1 -9 7 11 -2 -0 -15 -21 2 5 6 -4 -7 -0 5 2 -1 -0 -6 2 14 -19 27 -11 -7 -8 2 -2 -1 5 -4 1 3 3 1 0 1 1 4 10 0
3 6 13 -24 7 -4 -12 -1 4 1 -2 -3 3 -0 1 0 -10 13 -3 10 -9 7 -2 14 -27 -5 6 5 10 1 -10 -3 7 4 -7 4 1 0 -3 1 -3 8 17
-1 10 -43 -5 -9 -5 -2 -0 -2 0 -1 -1 -1 -4 6 -2 7 5 -8 0 12 -2 -2 2 -4 -0 0 -7 -0 29 -24 -1 -1 -1 -4 -3 0 -3 -1 1 -0 -9 4
4 -4 -7 0 -0 3 5 8 2 -1 6 -3 -0 -7 9 -8 14 -0 -3 -2 -17 4 54 57 8 4 1 55 16 -2 -3 14 -5 -8 1 2 3 -1 -4 -2 3 -3 6
-11 -10 4 11 -0 -2 0 -1 -9 -4 9 3 -14 -11 10 -2 -3 16 -13 -7 -6 -4 -6 2 8 3 11 22 13 -19 28 -4 -4 0 7 1 2 -3 1 -2 -2 -3 -3
4 13 3 9 5 5 -6 10 6 7 -10 -0 2 5 -6 10 5 -5 3 3 -3 -5 -5 -5 -10 13 -1 -3 -12 -2 12 19 -7 4 13 -12 3 -3 3 1 1 -3 -6
7 -2 -9 1 9 9 7 -17 -5 -3 -1 -6 1 -7 -2 1 5 -5 -5 7 3 -2 -3 8 -1 1 -1 -3 -4 3 -5 -12 -6 2 -0 0 1 -3 -4 -2 1 -1 -4
2 1 -1 -4 -5 -3 6 10 4 -6 -8 -5 -5 2 5 -10 -6 -7 0 -7 -3 1 7 11 4 2 -5 1 2 -1 1 -6 36 8 4 -9 4 6 -7 -12 1 -3 -7
Height
3137 3138 3139 3141 3143 3144 3144 3146 3146 3147 3148 3149 3150 3150 3150 3151 3151 3152 3153 3153 3154 3154 3154 3154 3155 3156 3155 3155 3154 3154 3153 3155 3156 3157 3157 3159 3160 3162 3163 3164 3166 3168 3169
3133 3134 3135 3137 3138 3140 3141 3143 3143 3144 3145 3146 3147 3148 3148 3148 3148 3149 3149 3149 3150 3149 3150 3151 3152 3152 3152 3152 3152 3152 3152 3152 3153 3153 3153 3156 3157 3159 3161 3161 3164 3165 3167
3125 3129 3130 3132 3134 3136 3137 3138 3139 3139 3140 3142 3144 3145 3145 3145 3144 3146 3146 3146 3146 3146 3146 3147 3148 3149 3149 3149 3150 3150 3150 3150 3151 3151 3152 3153 3154 3156 3158 3159 3161 3163 3165
3117 3119 3123 3126 3129 3131 3132 3134 3135 3136 3138 3139 3139 3140 3142 3142 3142 3142 3142 3143 3144 3143 3144 3144 3144 3145 3145 3146 3145 3147 3147 3148 3148 3149 3151 3151 3151 3151 3154 3156 3158 3161 3163
3111 3112 3115 3120 3123 3126 3128 3130 3132 3133 3134 3135 3136 3136 3137 3138 3138 3139 3140 3140 3140 3140 3140 3140 3141 3141 3142 3142 3142 3142 3143 3144 3145 3146 3147 3148 3150 3151 3152 3153 3154 3157 3159
3103 3108 3108 3112 3116 3120 3123 3125 3127 3129 3130 3130 3131 3132 3134 3134 3134 3135 3136 3137 3136 3136 3136 3137 3137 3137 3137 3137 3138 3138 3138 3139 3141 3142 3142 3143 3144 3146 3148 3149 3150 3153 3155
3095 3100 3101 3103 3109 3112 3116 3119 3121 3122 3125 3126 3126 3127 3129 3131 3131 3131 3132 3133 3134 3133 3133 3133 3133 3133 3133 3132 3133 3133 3133 3134 3135 3137 3137 3138 3138 3139 3142 3144 3145 3148 3150
3083 3090 3090 3094 3101 3106 3108 3111 3115 3118 3119 3121 3122 3123 3124 3127 3127 3127 3127 3128 3129 3129 3129 3129 3129 3130 3129 3128 3128 3128 3128 3129 3129 3130 3131 3133 3133 3134 3135 3138 3141 3143 3145
3068 3075 3079 3086 3092 3097 3100 3105 3109 3111 3112 3114 3116 3118 3118 3120 3123 3123 3122 3122 3124 3125 3124 3124 3125 3125 3125 3125 3124 3123 3123 3123 3123 3124 3124 3126 3127 3128 3130 3132 3135 3137 3139
3055 3061 3071 3075 3082 3086 3092 3096 3100 3104 3107 3106 3107 3110 3112 3114 3114 3116 3116 3116 3117 3119 3120 3119 3118 3120 3121 3121 3120 3119 3118 3117 3117 3117 3117 3118 3120 3122 3123 3124 3126 3130 3131
3044 3048 3056 3062 3069 3076 3084 3089 3092 3095 3098 3101 3102 3104 3105 3106 3108 3109 3110 3111 3109 3112 3113 3113 3113 3112 3113 3114 3114 3114 3112 3110 3110 3110 3110 3111 3112 3113 3115 3115 3117 3119 3123
3034 3039 3037 3046 3055 3065 3073 3080 3084 3087 3089 3093 3095 3097 3099 3098 3100 3101 3102 3103 3101 3103 3105 3105 3105 3105 3105 3106 3106 3106 3106 3105 3103 3102 3102 3102 3103 3104 3105 3106 3107 3109 3113
3021 3018 2978 3017 3036 3051 3061 3071 3074 3077 3081 3084 3087 3091 3092 3092 3093 3093 3093 3095 3092 3094 3093 3094 3096 3097 3097 3098 3099 3098 3098 3097 3096 3095 3094 3094 3094 3095 3096 3097 3098 3100 3103
3012 3001 2983 2987 3020 3040 3049 3060 3061 3066 3071 3075 3078 3080 3084 3086 3085 3086 3086 3087 3085 3085 3083 3086 3088 3088 3089 3089 3090 3090 3089 3089 3088 3087 3086 3085 3086 3087 3086 3087 3088 3089 3092
3005 3011 3015 2992 3019 3028 3036 3039 3049 3054 3060 3065 3068 3073 3073 3077 3076 3078 3078 3078 3078 3077 3075 3077 3076 3078 3078 3079 3082 3080 3080 3080 3080 3080 3079 3078 3078 3078 3078 3078 3080 3081 3083
3001 3002 3002 3005 3019 3022 3030 3001 3014 3033 3047 3054 3060 3063 3063 3067 3067 3069 3070 3070 3069 3068 3065 3069 3067 3068 3069 3068 3070 3071 3071 3071 3071 3071 3070 3070 3070 3070 3069 3069 3071 3073 3076
2993 2995 2997 3006 3013 3021 3023 3024 3026 3030 3044 3047 3049 3052 3054 3055 3057 3058 3059 3060 3053 3057 3055 3056 3057 3059 3059 3059 3060 3061 3062 3062 3062 3062 3062 3061 3062 3061 3061 3062 3064 3065 3067
2996 2993 2994 3004 3009 3010 3014 3017 3023 3033 3039 3039 3041 3042 3043 3047 3047 3046 3048 3048 3048 3048 3047 3039 3045 3044 3047 3048 3049 3050 3052 3052 3051 3051 3052 3052 3052 3052 3051 3051 3052 3054 3057
2995 2998 3002 3006 3008 3007 3010 3020 3022 3030 3033 3031 3032 3032 3034 3036 3035 3036 3038 3037 3038 3038 3037 3032 3026 3038 3036 3036 3038 3038 3039 3040 3040 3041 3040 3042 3042 3042 3041 3041 3042 3044 3047
2994 2997 2999 3000 3007 3009 3011 3018 3020 3022 3023 3024 3023 3023 3026 3024 3024 3025 3024 3025 3025 3026 3025 3022 3020 3024 3023 3023 3021 3024 3026 3028 3029 3030 3030 3030 3030 3031 3032 3032 3033 3034 3036
2992 2996 2998 3006 3007 3007 3010 3013 3014 3015 3016 3015 3014 3016 3016 3014 3014 3010 3010 3010 3012 3013 3013 3011 3011 3012 3013 3011 3012 3011 3010 3016 3016 3017 3017 3018 3018 3019 3021 3021 3021 3021 3025
2995 2996 3003 3005 3005 3004 3004 3002 3005 3006 3007 3006 3008 3009 3008 3006 3002 3000 2996 2998 2998 2999 2995 2992 2997 2997 2998 2999 2998 3001 2999 2999 2999 3005 3005 3005 3006 3006 3008 3008 3010 3010 3014
3002 3007 3007 3005 3006 3007 3005 3005 3004 3006 3000 3001 3003 3004 3000 2998 2995 2989 2989 2989 2988 2987 2987 2984 2983 2983 2983 2985 2986 2986 2983 2985 2986 2989 2991 2988 2994 2993 2996 2997 2998 3000 3004
3008 3006 3008 3006 3005 3004 3004 3003 3001 2997 2998 2999 3000 2997 2994 2992 2986 2983 2983 2983 2980 2978 2974 2972 2971 2969 2970 2972 2973 2973 2974 2974 2973 2972 2975 2975 2980 2981 2984 2986 2988 2990 2993
3005 3004 3003 3003 3001 3000 2996 2995 2997 2995 2993 2995 2991 2987 2986 2983 2978 2979 2978 2976 2973 2972 2968 2964 2959 2958 2957 2957 2958 2960 2962 2961 2958 2958 2960 2964 2965 2967 2971 2972 2974 2978 2983
3004 3002 3002 3001 2999 2999 2996 2993 2989 2990 2987 2989 2986 2983 2977 2973 2970 2969 2968 2965 2966 2964 2961 2956 2951 2946 2941 2942 2942 2944 2946 2948 2944 2945 2948 2950 2951 2954 2956 2958 2962 2965 2970